Weather History for Sheridan, WY

Change the Weather History Date:

Thursday, November 8, 2012

  Actual Average Record
Temperature  
Mean Temperature 39 °F 36 °F  
Max Temperature 52 °F 50 °F 77 °F (1999)
Min Temperature 25 °F 23 °F -9 °F (1966)
Degree Days  
Heating Degree Days 26 29  
Month to date heating degree days 148 216  
Since 1 July heating degree days 922 1124  
Cooling Degree Days 0 0  
Month to date cooling degree days 0 0  
Year to date cooling degree days 664 419  
Moisture  
Dew Point 27 °F    
Average Humidity 64    
Maximum Humidity 92    
Minimum Humidity 35    
Precipitation  
Precipitation 0.00 in 0.03 in 0.40 in (1947)
Month to date precipitation T 0.21  
Year to date precipitation 7.94 13.10  
Sea Level Pressure  
Sea Level Pressure 29.88 in    
Wind  
Wind Speed 9 mph (NE)    
Max Wind Speed 24 mph    
Max Gust Speed 31 mph    
Visibility 10 miles    
Events      
T = Trace of Precipitation, MM = Missing Value Source: NWS Daily Summary

Daily Weather History Graph

Daily Weather History Graph

Search for Another Location

Airport:

Trip Planner

Search our weather history database for the weather conditions in past years. The results will help you decide how hot, cold, wet, or windy it might be!

Date:

Astronomy

Nov. 08, 2012 Rise Set
Actual Time 6:56 AM MST 4:46 PM MST
Civil Twilight 6:25 AM MST 5:17 PM MST
Nautical Twilight 5:50 AM MST 5:52 PM MST
Astronomical Twilight 5:15 AM MST 6:26 PM MST
Moon 12:40 AM MST (11/8) 1:41 PM MST (11/8)
Length of Visible Light 10h 52m
Length of Day
9h 50m
Waning Crescent, 32% of the Moon is Illuminated
Nov 8
Waning Crescent
Nov 13
New
Nov 20
First Quarter
Nov 28
Full
Dec 6
Last Quarter

Hourly Weather History & Observations

Time (MST) Temp. Windchill Dew Point Humidity Pressure Visibility Wind Dir Wind Speed Gust Speed Precip Events Conditions
12:53 AM 45.0 °F 40.1 °F 28.0 °F 52% 29.92 in 10.0 mi North 9.2 mph - N/A   Overcast
1:53 AM 41.0 °F 38.0 °F 27.0 °F 57% 29.95 in 10.0 mi North 4.6 mph - N/A   Overcast
2:53 AM 39.9 °F 36.7 °F 28.9 °F 65% 29.96 in 10.0 mi NNW 4.6 mph - N/A   Overcast
3:53 AM 39.0 °F - 28.9 °F 67% 29.96 in 10.0 mi Calm Calm - N/A   Overcast
4:53 AM 37.9 °F - 28.9 °F 70% 29.99 in 10.0 mi Calm Calm - N/A   Overcast
5:53 AM 35.1 °F - 28.0 °F 76% 30.02 in 10.0 mi Calm Calm - N/A   Overcast
6:53 AM 37.0 °F 34.5 °F 30.0 °F 76% 30.00 in 10.0 mi South 3.5 mph - N/A   Overcast
7:53 AM 39.9 °F - 28.9 °F 65% 30.01 in 10.0 mi Calm Calm - N/A   Overcast
8:53 AM 43.0 °F 37.7 °F 27.0 °F 53% 30.01 in 10.0 mi SE 9.2 mph - N/A   Overcast
9:53 AM 45.0 °F 37.9 °F 26.1 °F 48% 29.99 in 10.0 mi ESE 16.1 mph - N/A   Clear
10:53 AM 46.9 °F - 26.1 °F 44% 29.94 in 10.0 mi SE 16.1 mph 24.2 mph N/A   Clear
11:53 AM 50.0 °F - 26.1 °F 39% 29.87 in 10.0 mi SE 17.3 mph 29.9 mph N/A   Clear
12:53 PM 51.1 °F - 25.0 °F 36% 29.83 in 10.0 mi SE 13.8 mph 26.5 mph N/A   Clear
1:53 PM 52.0 °F - 26.1 °F 37% 29.80 in 10.0 mi SE 17.3 mph 26.5 mph N/A   Clear
2:53 PM 51.1 °F - 26.1 °F 38% 29.77 in 10.0 mi SE 19.6 mph 27.6 mph N/A   Clear
3:53 PM 50.0 °F - 25.0 °F 38% 29.77 in 10.0 mi SE 12.7 mph - N/A   Clear
4:53 PM 46.9 °F - 25.0 °F 42% 29.78 in 10.0 mi ENE 6.9 mph - N/A   Clear
5:53 PM 39.9 °F 35.8 °F 28.9 °F 65% 29.81 in 10.0 mi NE 5.8 mph - N/A   Clear
6:53 PM 36.0 °F 27.5 °F 28.0 °F 73% 29.84 in 10.0 mi WNW 12.7 mph - N/A   Clear
7:53 PM 33.1 °F 24.9 °F 28.0 °F 82% 29.83 in 10.0 mi NNW 10.4 mph - N/A   Clear
8:53 PM 30.0 °F 24.1 °F 26.1 °F 85% 29.82 in 10.0 mi NW 5.8 mph - N/A   Clear
9:53 PM 27.0 °F 20.5 °F 25.0 °F 92% 29.81 in 10.0 mi NNW 5.8 mph - N/A   Clear
10:53 PM 26.1 °F 17.6 °F 25.0 °F 96% 29.78 in 10.0 mi NW 8.1 mph - N/A   Clear
11:53 PM 26.1 °F 19.4 °F 24.1 °F 92% 29.74 in 10.0 mi NW 5.8 mph - N/A   Clear